Location: Taaricht
(32.5378°N, 5.4251°W)
Time: 16:54:05
(UTC+00:00)

Cosmos 1606 Rocket - Pass Details

Date: 09 April 2020
Orbit: 602 x 633 km, 82.5° (Epoch: 26 May)

Event Time Altitude Azimuth Distance (km) Brightness Sun altitude
Rises 19:21:44 0° 176° (S) 2,882 6.8 -7.9°
Reaches altitude 10° 19:23:58 10° 172° (S) 1,985 5.9 -8.3°
Maximum altitude 19:28:17 59° 94° (E) 728 3.6 -9.2°
Drops below altitude 10° 19:32:40 10° 15° (NNE) 2,013 6.2 -10.1°
Sets 19:34:57 0° 11° (NNE) 2,927 7.1 -10.5°
